Regional Weather Roundup
Issued by NWS

Home | Current Version | Previous Version | Text Only | Print | Product List | Glossary On
Versions: 1 2 3 4 5 6 7 8 9 10 11 12 13 14 15 16 17 18 19 20 21 22 23 24 25 26 27 28 29 30 31 32 33 34 35 36 37 38 39 40 41 42 43 44 45 46 47 48 49 50
036
ASUS43 KIND 161909
RWRIN

WEATHER ROUNDUP FOR INDIANA
NATIONAL WEATHER SERVICE INDIANAPOLIS IN
200 PM EST SAT DEC 16 2017

NOTE: "FAIR" INDICATES FEW OR NO CLOUDS BELOW 12,000 FEET WITH NO
SIGNIFICANT WEATHER AND/OR OBSTRUCTIONS TO VISIBILITY.

* - STATION DOES NOT REPORT WEATHER SUCH AS PRECIPITATION OR FOG.

+ - STATION NOT QUALITY CONTROLLED BY THE NATIONAL WEATHER SERVICE.
    USE DATA WITH CAUTION...ESPECIALLY DEWPOINT AND RELATIVE
    HUMIDITY OBSERVATIONS.

INZ001>003-010>013-019-020-162000-
NORTHWEST INDIANA

CITY           SKY/WX    TMP DP  RH WIND       PRES   REMARKS
GARY /AIRPORT/ MOSUNNY   46  23  39 SW9       29.91S
KNOX *+        SUNNY     43  30  61 SW12      29.92S
LA PORTE +     SUNNY     41  27  58 SW8       29.92S
MICHIGAN CITY+ SUNNY     43  28  56 SW8       29.92S
MONTICELLO +   SUNNY     48  26  41 SW15      29.93S
RENSSELAER +   SUNNY     48  18  29 SW13G20   29.92F
VALPARAISO     SUNNY     46  28  49 SW12      29.91F

$$

LMZ046-743>745-162000-
SOUTHERN LAKE MICHIGAN

STATION/POSITION TIME  TEMP    WIND        PRES    WAVE
                       AIR SEA DIR/SP/G            HT
                 (UTC) (F)     (DEG/KT/KT) (MB)    (FT)
BURNS HARBOR     1840   44     210/  7/ 12 1013.2F
MICHIGAN CITY    1840   41     240/  6/  7   N/A

$$

INZ004-005-014>016-021>024-162000-
NORTH CENTRAL INDIANA

CITY           SKY/WX    TMP DP  RH WIND       PRES   REMARKS
ELKHART        SUNNY     39  27  60 S6        29.93S WCI  35
GOSHEN         SUNNY     39  27  62 SW13      29.93S WCI  31
LOGANSPORT +   SUNNY     46  28  49 SW14      29.95F
PERU/GRISSOM   SUNNY     47  27  45 SW17G24   29.94S
ROCHESTER +    SUNNY     45  30  57 SW9       29.93F
SOUTH BEND     SUNNY     39  27  62 SW12      29.93S WCI  32
WARSAW +       SUNNY     41  28  60 SW9       29.93S

$$

INZ006>009-017-018-025>027-162000-
NORTHEAST INDIANA

CITY           SKY/WX    TMP DP  RH WIND       PRES   REMARKS
AUBURN +       SUNNY     41  28  60 SW8       29.95S
FORT WAYNE     MOSUNNY   45  31  58 SW13      29.95F
HUNTINGTON +   SUNNY     46  25  45 SW9G18    29.95S

$$

INZ028-029-035-036-043>045-051>053-162000-
WEST CENTRAL INDIANA

CITY           SKY/WX    TMP DP  RH WIND       PRES   REMARKS
CRAWFORDSVL +  SUNNY     46  29  50 SW17        N/A
GREENCASTLE +  SUNNY     46  28  49 SW9G16    29.98F
LAFAYETTE      SUNNY     48  28  46 SW10G22   29.95F
TERRE HAUTE    SUNNY     51  28  41 SW15      29.99F

$$

INZ030>032-037>040-046>048-054>057-064-065-162000-
CENTRAL INDIANA

CITY           SKY/WX    TMP DP  RH WIND       PRES   REMARKS
ANDERSON       SUNNY     48  27  43 SW12G23   29.98
COLUMBUS       SUNNY     50  21  32 S16       30.02F
FRANKFORT +    SUNNY     51  30  44 SW14G21   29.96F
GREENWOOD *+   SUNNY     54  30  39 SW14G20   29.99F
INDIANAPOLIS   SUNNY     50  29  44 SW18      29.99F
-EAGLE CREEK   SUNNY     49  28  44 SW8G21    29.97F
KOKOMO +       SUNNY     48  28  46 SW18      29.96F
MARION +       SUNNY     47  27  47 W16G23    29.96F
MT COMFORT *+  SUNNY     50  32  50 SW13      29.98F
SHELBYVILLE    SUNNY     51  26  37 SW15G23   29.99F
ZIONSVILLE +   SUNNY     47  28  47 SW17G24   29.97F

$$

INZ033-034-041-042-049-050-058-059-162000-
EAST CENTRAL INDIANA

CITY           SKY/WX    TMP DP  RH WIND       PRES   REMARKS
MUNCIE         SUNNY     49  25  39 SW16G24   29.96F
RICHMOND +     SUNNY     45  28  53 SW18      30.00S

$$

INZ060-061-067>069-081>083-085>088-162000-
SOUTHWEST INDIANA

CITY           SKY/WX    TMP DP  RH WIND       PRES   REMARKS
EVANSVILLE     SUNNY     50  30  46 SW16G29   30.09F
HUNTINGBURG +  SUNNY     50  31  48 S17G25    30.09F
WASHINGTON +   SUNNY     50  28  43 S17       30.04F

$$

INZ062-063-066-070>080-084-089>092-162000-
SOUTH CENTRAL AND SOUTHEAST INDIANA

CITY           SKY/WX    TMP DP  RH WIND       PRES   REMARKS
BEDFORD +      SUNNY     50  27  40 S14G21    30.03F
BLOOMINGTON    SUNNY     50  27  40 SW16G29   30.00F
MADISON *+     SUNNY     48  28  46 S14       30.07F
NORTH VERNON + SUNNY     46  27  46 SW16G25   30.04F
SEYMOUR +      SUNNY     54  28  37 SW14      30.04F

$$





USA.gov is the U.S. government's official web portal to all federal, state and local government web resources and services.